Time,TemperatureF,DewpointF,PressureIn,WindDirection,WindDirectionDegrees,WindSpeedMPH,WindSpeedGustMPH,Humidity,HourlyPrecipIn,Conditions,Clouds,dailyrainin,SolarRadiationWatts/m^2,SoftwareType,DateUTC
2013-01-13 00:03:00,35.9,35.0,30.07,SSE,163,0.0,2.0,97,0.00,,,0.00,0,weatherlink.com 1.10,2013-01-13 05:03:00,
2013-01-13 00:18:00,38.4,38.0,30.07,SSE,163,0.0,5.0,98,0.00,,,0.00,0,weatherlink.com 1.10,2013-01-13 05:18:00,
2013-01-13 00:33:00,38.2,38.0,30.07,WNW,293,0.0,5.0,98,0.00,,,0.00,0,weatherlink.com 1.10,2013-01-13 05:33:00,
2013-01-13 00:49:00,40.7,40.0,30.07,WNW,299,0.0,6.0,98,0.00,,,0.00,0,weatherlink.com 1.10,2013-01-13 05:49:00,
2013-01-13 01:04:00,36.5,36.0,30.08,SE,128,0.0,5.0,97,0.00,,,0.00,0,weatherlink.com 1.10,2013-01-13 06:04:00,
2013-01-13 01:19:00,37.7,37.0,30.08,SE,128,1.0,1.0,98,0.00,,,0.00,0,weatherlink.com 1.10,2013-01-13 06:19:00,
2013-01-13 01:34:00,36.6,36.0,30.08,SE,128,0.0,1.0,97,0.00,,,0.00,0,weatherlink.com 1.10,2013-01-13 06:34:00,
2013-01-13 01:49:00,36.3,36.0,30.09,SE,128,0.0,1.0,97,0.00,,,0.00,0,weatherlink.com 1.10,2013-01-13 06:49:00,
2013-01-13 02:04:00,37.7,37.0,30.09,SE,128,2.0,2.0,98,0.00,,,0.00,0,weatherlink.com 1.10,2013-01-13 07:04:00,
2013-01-13 02:19:00,38.4,38.0,30.09,SE,128,0.0,1.0,97,0.00,,,0.00,0,weatherlink.com 1.10,2013-01-13 07:19:00,
2013-01-13 02:34:00,39.1,39.0,30.09,SE,128,0.0,5.0,98,0.00,,,0.00,0,weatherlink.com 1.10,2013-01-13 07:34:00,
2013-01-13 02:49:00,39.7,39.0,30.08,SE,128,0.0,2.0,98,0.00,,,0.00,0,weatherlink.com 1.10,2013-01-13 07:49:00,
2013-01-13 03:04:00,40.2,40.0,30.08,SE,128,0.0,1.0,98,0.00,,,0.00,0,weatherlink.com 1.10,2013-01-13 08:04:00,
2013-01-13 03:19:00,38.4,38.0,30.07,SE,128,0.0,0.0,97,0.00,,,0.00,0,weatherlink.com 1.10,2013-01-13 08:19:00,
2013-01-13 03:34:00,40.2,40.0,30.06,SE,128,0.0,2.0,98,0.00,,,0.00,0,weatherlink.com 1.10,2013-01-13 08:34:00,
2013-01-13 03:49:00,40.0,39.0,30.05,SE,128,0.0,1.0,97,0.00,,,0.00,0,weatherlink.com 1.10,2013-01-13 08:49:00,
2013-01-13 04:04:00,40.6,40.0,30.06,SE,128,5.0,5.0,98,0.00,,,0.00,0,weatherlink.com 1.10,2013-01-13 09:04:00,
2013-01-13 04:19:00,40.5,40.0,30.06,SSW,196,0.0,2.0,98,0.00,,,0.00,0,weatherlink.com 1.10,2013-01-13 09:19:00,
2013-01-13 04:34:00,40.3,40.0,30.05,SSW,196,1.0,2.0,97,0.00,,,0.00,0,weatherlink.com 1.10,2013-01-13 09:34:00,
2013-01-13 04:49:00,39.5,39.0,30.05,SSW,196,1.0,1.0,97,0.00,,,0.00,0,weatherlink.com 1.10,2013-01-13 09:49:00,
2013-01-13 05:04:00,38.8,38.0,30.04,SSW,196,0.0,1.0,97,0.00,,,0.00,0,weatherlink.com 1.10,2013-01-13 10:04:00,
2013-01-13 05:19:00,39.3,39.0,30.05,SSW,196,0.0,1.0,97,0.00,,,0.00,0,weatherlink.com 1.10,2013-01-13 10:19:00,
2013-01-13 05:34:00,39.7,39.0,30.05,SSW,196,0.0,1.0,97,0.00,,,0.00,0,weatherlink.com 1.10,2013-01-13 10:34:00,
2013-01-13 05:49:00,39.4,39.0,30.04,SSW,196,0.0,1.0,97,0.00,,,0.00,0,weatherlink.com 1.10,2013-01-13 10:49:00,
2013-01-13 06:04:00,38.8,38.0,30.05,SSW,196,0.0,1.0,97,0.00,,,0.00,0,weatherlink.com 1.10,2013-01-13 11:04:00,
2013-01-13 06:19:00,38.7,38.0,30.05,SSW,196,0.0,0.0,97,0.00,,,0.00,0,weatherlink.com 1.10,2013-01-13 11:19:00,
2013-01-13 06:33:00,38.3,38.0,30.05,SSW,196,0.0,1.0,97,0.00,,,0.00,0,weatherlink.com 1.10,2013-01-13 11:33:00,
2013-01-13 06:49:00,38.3,38.0,30.06,SSW,196,0.0,1.0,97,0.00,,,0.00,0,weatherlink.com 1.10,2013-01-13 11:49:00,
2013-01-13 07:04:00,37.5,37.0,30.07,SSW,196,1.0,4.0,97,0.00,,,0.00,0,weatherlink.com 1.10,2013-01-13 12:04:00,
2013-01-13 07:19:00,36.8,36.0,30.07,SSW,196,0.0,1.0,96,0.00,,,0.00,0,weatherlink.com 1.10,2013-01-13 12:19:00,
2013-01-13 07:34:00,35.1,34.0,30.06,SSW,196,0.0,4.0,95,0.00,,,0.00,12,weatherlink.com 1.10,2013-01-13 12:34:00,
2013-01-13 07:51:00,34.6,34.0,30.06,SSW,196,0.0,1.0,96,0.00,,,0.00,14,weatherlink.com 1.10,2013-01-13 12:51:00,
2013-01-13 08:04:00,35.9,35.0,30.06,SSW,196,0.0,1.0,97,0.00,,,0.00,19,weatherlink.com 1.10,2013-01-13 13:04:00,
2013-01-13 08:21:00,37.0,36.0,30.07,SSW,196,0.0,1.0,97,0.00,,,0.00,23,weatherlink.com 1.10,2013-01-13 13:21:00,
2013-01-13 08:35:00,38.4,38.0,30.07,SSW,196,0.0,1.0,97,0.00,,,0.00,91,weatherlink.com 1.10,2013-01-13 13:35:00,
2013-01-13 08:51:00,38.6,38.0,30.07,SSW,196,0.0,4.0,97,0.00,,,0.00,149,weatherlink.com 1.10,2013-01-13 13:51:00,
2013-01-13 09:05:00,38.4,37.0,30.07,SSW,196,0.0,2.0,96,0.00,,,0.00,130,weatherlink.com 1.10,2013-01-13 14:05:00,
2013-01-13 09:21:00,38.9,38.0,30.07,SSW,196,1.0,2.0,95,0.00,,,0.00,142,weatherlink.com 1.10,2013-01-13 14:21:00,
2013-01-13 09:35:00,39.7,38.0,30.07,SSW,196,0.0,1.0,95,0.00,,,0.00,288,weatherlink.com 1.10,2013-01-13 14:35:00,
2013-01-13 09:51:00,42.8,41.0,30.07,SSW,196,0.0,1.0,94,0.00,,,0.00,211,weatherlink.com 1.10,2013-01-13 14:51:00,
2013-01-13 10:06:00,42.5,41.0,30.07,SSW,196,0.0,4.0,93,0.00,,,0.00,148,weatherlink.com 1.10,2013-01-13 15:06:00,
2013-01-13 10:22:00,42.3,40.0,30.05,SSE,148,4.0,5.0,92,0.00,,,0.00,100,weatherlink.com 1.10,2013-01-13 15:22:00,
2013-01-13 10:36:00,43.0,41.0,30.05,SSE,153,0.0,4.0,91,0.00,,,0.00,450,weatherlink.com 1.10,2013-01-13 15:36:00,
2013-01-13 10:51:00,44.9,42.0,30.04,SSE,167,2.0,6.0,89,0.00,,,0.00,413,weatherlink.com 1.10,2013-01-13 15:51:00,
2013-01-13 11:06:00,45.8,43.0,30.03,SSE,154,2.0,7.0,89,0.00,,,0.00,533,weatherlink.com 1.10,2013-01-13 16:06:00,
2013-01-13 11:22:00,49.1,47.0,30.02,SSE,152,1.0,13.0,91,0.00,,,0.00,422,weatherlink.com 1.10,2013-01-13 16:22:00,
2013-01-13 11:37:00,53.5,49.0,30.01,South,171,6.0,22.0,83,0.00,,,0.00,455,weatherlink.com 1.10,2013-01-13 16:37:00,
2013-01-13 11:52:00,55.5,48.0,30.01,South,185,7.0,15.0,77,0.00,,,0.00,490,weatherlink.com 1.10,2013-01-13 16:52:00,
2013-01-13 12:07:00,55.5,48.0,30.00,SSW,200,15.0,23.0,77,0.00,,,0.00,496,weatherlink.com 1.10,2013-01-13 17:07:00,
2013-01-13 12:22:00,55.9,49.0,29.99,South,172,4.0,20.0,77,0.00,,,0.00,496,weatherlink.com 1.10,2013-01-13 17:22:00,
2013-01-13 12:37:00,53.7,48.0,29.99,SW,236,3.0,15.0,81,0.00,,,0.00,102,weatherlink.com 1.10,2013-01-13 17:37:00,
2013-01-13 12:53:00,53.9,48.0,29.98,WSW,242,16.0,16.0,80,0.00,,,0.00,499,weatherlink.com 1.10,2013-01-13 17:53:00,
2013-01-13 13:08:00,51.7,47.0,29.98,SSW,198,6.0,23.0,84,0.00,,,0.00,202,weatherlink.com 1.10,2013-01-13 18:08:00,
2013-01-13 13:23:00,49.6,46.0,29.98,SSE,165,10.0,14.0,88,0.00,,,0.00,77,weatherlink.com 1.10,2013-01-13 18:23:00,
2013-01-13 13:38:00,48.2,46.0,29.97,SSW,201,9.0,19.0,92,0.00,,,0.00,139,weatherlink.com 1.10,2013-01-13 18:38:00,
2013-01-13 13:53:00,48.5,46.0,29.96,West,275,3.0,21.0,92,0.00,,,0.00,137,weatherlink.com 1.10,2013-01-13 18:53:00,
2013-01-13 14:08:00,49.0,47.0,29.95,WNW,299,1.0,16.0,92,0.00,,,0.00,121,weatherlink.com 1.10,2013-01-13 19:08:00,
2013-01-13 14:24:00,50.4,48.0,29.94,SSW,201,5.0,32.0,91,0.00,,,0.00,327,weatherlink.com 1.10,2013-01-13 19:24:00,
2013-01-13 14:39:00,51.4,48.0,29.94,SSW,192,5.0,19.0,89,0.00,,,0.00,204,weatherlink.com 1.10,2013-01-13 19:39:00,
2013-01-13 14:54:00,50.5,47.0,29.93,SSW,194,0.0,11.0,89,0.00,,,0.00,58,weatherlink.com 1.10,2013-01-13 19:54:00,
2013-01-13 15:09:00,49.2,47.0,29.94,East,91,1.0,18.0,92,0.00,,,0.00,30,weatherlink.com 1.10,2013-01-13 20:09:00,
2013-01-13 15:24:00,48.9,47.0,29.94,SSW,199,3.0,14.0,92,0.00,,,0.00,70,weatherlink.com 1.10,2013-01-13 20:24:00,
2013-01-13 15:39:00,48.3,46.0,29.94,SSW,209,0.0,8.0,93,0.00,,,0.00,47,weatherlink.com 1.10,2013-01-13 20:39:00,
2013-01-13 15:55:00,48.8,47.0,29.92,SE,146,5.0,14.0,94,0.00,,,0.00,56,weatherlink.com 1.10,2013-01-13 20:55:00,
2013-01-13 16:09:00,47.4,46.0,29.92,SSE,165,4.0,13.0,94,0.00,,,0.00,25,weatherlink.com 1.10,2013-01-13 21:09:00,
2013-01-13 16:25:00,46.2,45.0,29.93,SE,141,3.0,8.0,96,0.00,,,0.00,12,weatherlink.com 1.10,2013-01-13 21:25:00,
2013-01-13 16:41:00,46.9,46.0,29.93,SSW,202,9.0,12.0,97,0.00,,,0.00,0,weatherlink.com 1.10,2013-01-13 21:41:00,
2013-01-13 16:55:00,47.4,46.0,29.94,South,191,1.0,10.0,96,0.00,,,0.00,0,weatherlink.com 1.10,2013-01-13 21:55:00,
2013-01-13 17:11:00,47.4,46.0,29.93,SW,218,1.0,14.0,96,0.00,,,0.00,0,weatherlink.com 1.10,2013-01-13 22:11:00,
2013-01-13 17:27:00,47.5,47.0,29.94,NW,316,6.0,14.0,96,0.00,,,0.00,0,weatherlink.com 1.10,2013-01-13 22:27:00,
2013-01-13 17:41:00,47.2,46.0,29.93,WSW,240,2.0,9.0,96,0.00,,,0.00,0,weatherlink.com 1.10,2013-01-13 22:41:00,
2013-01-13 17:56:00,47.1,46.0,29.93,SSW,200,0.0,9.0,96,0.00,,,0.00,0,weatherlink.com 1.10,2013-01-13 22:56:00,
2013-01-13 18:11:00,46.9,46.0,29.94,SSW,198,0.0,10.0,96,0.00,,,0.00,0,weatherlink.com 1.10,2013-01-13 23:11:00,
2013-01-13 18:26:00,45.5,44.0,29.94,WNW,296,0.0,6.0,94,0.00,,,0.00,0,weatherlink.com 1.10,2013-01-13 23:26:00,
2013-01-13 18:42:00,43.8,43.0,29.94,WNW,296,0.0,4.0,95,0.00,,,0.00,0,weatherlink.com 1.10,2013-01-13 23:42:00,
2013-01-13 18:56:00,44.0,43.0,29.94,West,274,4.0,6.0,96,0.00,,,0.00,0,weatherlink.com 1.10,2013-01-13 23:56:00,
2013-01-13 19:11:00,45.0,44.0,29.95,West,281,0.0,6.0,97,0.00,,,0.00,0,weatherlink.com 1.10,2013-01-14 00:11:00,
2013-01-13 19:26:00,48.5,48.0,29.95,South,174,1.0,16.0,97,0.00,,,0.00,0,weatherlink.com 1.10,2013-01-14 00:26:00,
2013-01-13 19:42:00,50.1,48.0,29.94,WNW,300,1.0,10.0,91,0.00,,,0.00,0,weatherlink.com 1.10,2013-01-14 00:42:00,
2013-01-13 20:13:00,43.0,42.0,29.93,ESE,102,2.0,6.0,95,0.00,,,0.00,0,weatherlink.com 1.10,2013-01-14 01:13:00,
2013-01-13 20:28:00,43.0,42.0,29.92,East,84,1.0,5.0,96,0.00,,,0.00,0,weatherlink.com 1.10,2013-01-14 01:28:00,
2013-01-13 20:43:00,42.5,42.0,29.93,East,84,0.0,2.0,96,0.00,,,0.00,0,weatherlink.com 1.10,2013-01-14 01:43:00,
2013-01-13 20:58:00,42.3,42.0,29.93,SE,135,0.0,5.0,97,0.00,,,0.00,0,weatherlink.com 1.10,2013-01-14 01:58:00,
2013-01-13 21:13:00,42.0,41.0,29.92,SE,136,0.0,4.0,97,0.00,,,0.00,0,weatherlink.com 1.10,2013-01-14 02:13:00,
2013-01-13 21:28:00,41.8,41.0,29.92,SE,136,0.0,1.0,97,0.00,,,0.00,0,weatherlink.com 1.10,2013-01-14 02:28:00,
2013-01-13 21:43:00,41.1,40.0,29.92,SE,136,0.0,1.0,97,0.00,,,0.00,0,weatherlink.com 1.10,2013-01-14 02:43:00,
2013-01-13 21:58:00,41.2,40.0,29.92,SE,135,0.0,2.0,97,0.00,,,0.00,0,weatherlink.com 1.10,2013-01-14 02:58:00,
2013-01-13 22:13:00,41.0,40.0,29.91,SE,135,1.0,2.0,97,0.00,,,0.00,0,weatherlink.com 1.10,2013-01-14 03:13:00,
2013-01-13 22:28:00,40.5,40.0,29.92,SE,136,0.0,0.0,97,0.00,,,0.00,0,weatherlink.com 1.10,2013-01-14 03:28:00,
2013-01-13 22:43:00,40.4,40.0,29.92,SE,135,0.0,0.0,97,0.00,,,0.00,0,weatherlink.com 1.10,2013-01-14 03:43:00,
2013-01-13 23:28:00,39.9,39.0,29.92,SE,135,0.0,1.0,97,0.00,,,0.00,0,weatherlink.com 1.10,2013-01-14 04:28:00,
2013-01-13 23:43:00,39.8,39.0,29.92,SE,135,0.0,0.0,97,0.00,,,0.00,0,weatherlink.com 1.10,2013-01-14 04:43:00,
2013-01-13 23:58:00,39.9,39.0,29.91,SE,135,0.0,1.0,98,0.00,,,0.00,0,weatherlink.com 1.10,2013-01-14 04:58:00,